Shungnak AP, Shungnak, AK, AK

4:23 PM AKST on November 19, 2019 (GMT -0900)
Shungnak AP, Shungnak, AK

Weather History for PAGH - September, 2019

Change the Weather History Date:

Tuesday, September 24, 2019

  Actual Average (PAFM) Record (PAFM)
Temperature  
Mean Temperature 34 °F -  
Max Temperature 39 °F 39 °F 58 °F (1984)
Min Temperature 30 °F 29 °F 12 °F (1983)
Degree Days  
Heating Degree Days 30    
Moisture  
Dew Point 36 °F    
Average Humidity 97    
Maximum Humidity 100    
Minimum Humidity 89    
Precipitation  
Precipitation 0.00 in - - ()
Sea Level Pressure  
Sea Level Pressure 29.78 in    
Wind  
Wind Speed 4 mph (WSW)    
Max Wind Speed 9 mph    
Max Gust Speed -    
Visibility 9 miles    
Events Rain    
Averages and records for this station are not official NWS values.
T = Trace of Precipitation, MM = Missing Value Source: NWS Daily Summary

Daily Weather History Graph

Daily Weather History Graph

Search for Another Location

Airport or City:

Astronomy

Sep. 24, 2019 Rise Set
Actual Time 8:17 AM AKDT 8:22 PM AKDT
Civil Twilight 7:23 AM AKDT 9:15 PM AKDT
Nautical Twilight 6:18 AM AKDT 10:20 PM AKDT
Astronomical Twilight 5:00 AM AKDT 11:36 PM AKDT
Moon No Moon Rise 8:56 PM AKDT (9/24)
Length of Visible Light 13h 51m
Length of Day
12h 05m
Waning Crescent, 21% of the Moon is Illuminated
Sep 24
Waning Crescent
Sep 28
New
Oct 5
First Quarter
Oct 13
Full
Oct 21
Last Quarter

Hourly Weather History & Observations

Time (AKDT) Temp. Windchill Dew Point Humidity Pressure Visibility Wind Dir Wind Speed Gust Speed Precip Events Conditions
12:26 AM 39.2 °F 35.9 °F 37.4 °F 93% 29.69 in 10.0 mi SSW 4.6 mph - N/A   Overcast
12:56 AM 39.0 °F 36.8 °F 37.9 °F 96% 29.72 in 10.0 mi SW 3.5 mph - N/A Rain Light Rain
1:56 AM 39.9 °F - 39.0 °F 97% 29.73 in 7.0 mi Calm Calm - N/A Rain Light Rain
2:05 AM 39.2 °F 35.9 °F 39.2 °F 100% 29.71 in 9.0 mi SW 4.6 mph - N/A Rain Light Rain
2:15 AM 39.2 °F 35.9 °F 39.2 °F 100% 29.71 in 9.0 mi WSW 4.6 mph - N/A Rain Light Rain
2:44 AM 39.2 °F 35.9 °F 39.2 °F 100% 29.72 in 6.0 mi WSW 4.6 mph - N/A Rain Light Rain
2:56 AM 39.0 °F 36.8 °F 39.0 °F 100% 29.74 in 10.0 mi SW 3.5 mph - N/A Rain Light Rain
3:37 AM 37.4 °F 33.8 °F 37.4 °F 100% 29.72 in 10.0 mi WSW 4.6 mph - N/A   Overcast
3:56 AM 37.9 °F 35.5 °F 37.9 °F 100% 29.75 in 10.0 mi WSW 3.5 mph - N/A   Overcast
4:18 AM 37.4 °F 33.8 °F 37.4 °F 100% 29.73 in 10.0 mi WSW 4.6 mph - N/A   Overcast
4:38 AM 37.4 °F 33.8 °F 37.4 °F 100% 29.73 in 10.0 mi WSW 4.6 mph - N/A   Overcast
4:47 AM 37.4 °F 33.8 °F 37.4 °F 100% 29.74 in 10.0 mi WSW 4.6 mph - N/A   Overcast
4:56 AM 37.9 °F 34.4 °F 37.0 °F 97% 29.75 in 10.0 mi West 4.6 mph - N/A   Overcast
5:09 AM 37.4 °F - 37.4 °F 100% 29.74 in 10.0 mi Calm Calm - N/A   Overcast
5:19 AM 37.4 °F - 37.4 °F 100% 29.74 in 10.0 mi Calm Calm - N/A   Overcast
5:56 AM 37.0 °F - 36.0 °F 96% 29.76 in 10.0 mi Calm Calm - N/A   Overcast
6:56 AM 36.0 °F - 36.0 °F 100% 29.78 in 10.0 mi Calm Calm - N/A   Overcast
7:47 AM 35.6 °F - 35.6 °F 100% 29.76 in 10.0 mi Calm Calm - N/A   Overcast
7:56 AM 36.0 °F - 36.0 °F 100% 29.78 in 10.0 mi Calm Calm - N/A   Overcast
8:34 AM 35.6 °F 32.8 °F 35.6 °F 100% 29.77 in 10.0 mi West 3.5 mph - N/A   Overcast
8:56 AM 36.0 °F 33.3 °F 35.1 °F 97% 29.79 in 10.0 mi WNW 3.5 mph - N/A   Overcast
9:56 AM 35.1 °F - 35.1 °F 100% 29.80 in 10.0 mi Calm Calm - N/A   Overcast
10:37 AM 35.6 °F 32.8 °F 35.6 °F 100% 29.78 in 8.0 mi WNW 3.5 mph - N/A Rain Light Rain
10:44 AM 35.6 °F 32.8 °F 35.6 °F 100% 29.78 in 7.0 mi NW 3.5 mph - N/A Rain Light Rain
10:49 AM 35.6 °F 32.8 °F 35.6 °F 100% 29.79 in 8.0 mi WNW 3.5 mph - N/A Rain Light Rain
10:56 AM 36.0 °F 33.3 °F 35.1 °F 97% 29.81 in 7.0 mi WNW 3.5 mph - N/A Rain Light Rain
11:36 AM 35.6 °F 29.9 °F 33.8 °F 93% 29.79 in 10.0 mi West 6.9 mph - N/A Rain Light Rain
11:56 AM 35.1 °F 30.1 °F 34.0 °F 96% 29.81 in 10.0 mi WNW 5.8 mph - N/A Rain Rain
12:07 PM 35.6 °F 29.2 °F 33.8 °F 93% 29.80 in 10.0 mi West 8.1 mph - N/A Rain Light Rain
12:56 PM 35.1 °F 28.6 °F 34.0 °F 96% 29.83 in 10.0 mi West 8.1 mph - N/A Rain Light Rain
1:56 PM 35.1 °F 29.3 °F 34.0 °F 96% 29.83 in 7.0 mi WNW 6.9 mph - N/A Rain Light Rain
2:56 PM 36.0 °F - 34.0 °F 93% 29.83 in 10.0 mi Calm Calm - N/A   Overcast
3:31 PM 35.6 °F 32.8 °F 35.6 °F 100% 29.82 in 10.0 mi Variable 3.5 mph - N/A   Overcast
3:56 PM 37.0 °F - 35.1 °F 93% 29.83 in 10.0 mi Calm Calm - N/A Rain Light Rain
4:48 PM 37.4 °F - 35.6 °F 93% 29.81 in 7.0 mi Calm Calm - N/A   Overcast
4:56 PM 37.9 °F - 35.1 °F 89% 29.83 in 10.0 mi Calm Calm - N/A   Overcast
5:15 PM 37.4 °F - 35.6 °F 93% 29.81 in 10.0 mi Calm Calm - N/A   Overcast
5:56 PM 37.9 °F 33.5 °F 36.0 °F 93% 29.84 in 10.0 mi SE 5.8 mph - N/A Rain Light Rain
6:19 PM 37.4 °F 32.8 °F 35.6 °F 93% 29.82 in 10.0 mi SE 5.8 mph - N/A Rain Light Rain
6:51 PM 37.4 °F 34.9 °F 35.6 °F 93% 29.82 in 10.0 mi ESE 3.5 mph - N/A   Overcast
6:56 PM 37.0 °F 33.3 °F 36.0 °F 96% 29.84 in 10.0 mi ESE 4.6 mph - N/A   Overcast
7:56 PM 37.0 °F 31.0 °F 36.0 °F 96% 29.84 in 10.0 mi East 8.1 mph - N/A   Overcast
8:56 PM 35.1 °F 28.6 °F 35.1 °F 100% 29.84 in 10.0 mi ESE 8.1 mph - N/A   Mostly Cloudy
9:56 PM 33.1 °F 26.1 °F 33.1 °F 100% 29.84 in 10.0 mi ESE 8.1 mph - N/A   Overcast
10:05 PM 33.8 °F 27.0 °F 33.8 °F 100% 29.82 in 10.0 mi East 8.1 mph - N/A   Overcast
10:56 PM 32.0 °F 25.6 °F 30.9 °F 96% 29.84 in 6.0 mi East 6.9 mph - N/A   Scattered Clouds
11:37 PM 30.2 °F 23.4 °F 30.2 °F 100% 29.82 in 4.0 mi SE 6.9 mph - N/A   Mostly Cloudy
11:56 PM 30.0 °F 21.7 °F 30.0 °F 100% 29.84 in 1.8 mi SE 9.2 mph - N/A   Overcast